Time,TemperatureF,DewpointF,PressureIn,WindDirection,WindDirectionDegrees,WindSpeedMPH,WindSpeedGustMPH,Humidity,HourlyPrecipIn,Conditions,Clouds,dailyrainin,SoftwareType,DateUTC
2013-06-18 00:04:00,56.2,28.9,24.99,West,268,13.0,-999.0,35,-99.99,,,-99.99,dwt +perl,2013-06-18 07:04:00,
2013-06-18 00:09:00,55.9,27.9,24.99,WSW,250,14.0,-999.0,34,-99.99,,,-99.99,dwt +perl,2013-06-18 07:09:00,
2013-06-18 00:14:00,55.0,28.5,24.98,WSW,241,12.0,-999.0,36,-99.99,,,-99.99,dwt +perl,2013-06-18 07:14:00,
2013-06-18 00:19:00,54.1,28.4,24.98,West,272,19.0,-999.0,37,-99.99,,,-99.99,dwt +perl,2013-06-18 07:19:00,
2013-06-18 00:24:00,54.3,27.9,24.98,WSW,258,13.0,-999.0,36,-99.99,,,-99.99,dwt +perl,2013-06-18 07:24:00,
2013-06-18 00:34:00,54.0,29.6,24.98,West,266,10.0,-999.0,39,-99.99,,,-99.99,dwt +perl,2013-06-18 07:34:00,
2013-06-18 00:39:00,53.7,30.0,24.98,WSW,256,11.0,-999.0,40,-99.99,,,-99.99,dwt +perl,2013-06-18 07:39:00,
2013-06-18 00:44:00,52.8,29.8,24.98,WSW,258,14.0,-999.0,41,-99.99,,,-99.99,dwt +perl,2013-06-18 07:44:00,
2013-06-18 00:49:00,52.7,30.3,24.98,WSW,253,13.0,-999.0,42,-99.99,,,-99.99,dwt +perl,2013-06-18 07:49:00,
2013-06-18 00:54:00,53.0,28.7,24.98,WNW,290,14.0,-999.0,39,-99.99,,,-99.99,dwt +perl,2013-06-18 07:54:00,
2013-06-18 00:59:00,53.2,28.3,24.98,West,279,20.0,-999.0,38,-99.99,,,-99.99,dwt +perl,2013-06-18 07:59:00,
2013-06-18 01:04:00,53.2,28.3,24.98,West,275,13.0,-999.0,38,-99.99,,,-99.99,dwt +perl,2013-06-18 08:04:00,
2013-06-18 01:09:00,53.2,28.9,24.97,West,259,16.0,-999.0,39,-99.99,,,-99.99,dwt +perl,2013-06-18 08:09:00,
2013-06-18 01:14:00,52.9,29.8,24.97,WSW,247,13.0,-999.0,41,-99.99,,,-99.99,dwt +perl,2013-06-18 08:14:00,
2013-06-18 01:19:00,52.6,30.2,24.97,WSW,245,12.0,-999.0,42,-99.99,,,-99.99,dwt +perl,2013-06-18 08:19:00,
2013-06-18 01:24:00,51.5,30.9,24.97,West,264,12.0,-999.0,45,-99.99,,,-99.99,dwt +perl,2013-06-18 08:24:00,
2013-06-18 01:29:00,51.0,32.0,24.97,WSW,256,14.0,-999.0,48,-99.99,,,-99.99,dwt +perl,2013-06-18 08:29:00,
2013-06-18 01:34:00,50.8,31.8,24.97,West,261,13.0,-999.0,48,-99.99,,,-99.99,dwt +perl,2013-06-18 08:34:00,
2013-06-18 01:39:00,51.2,31.1,24.97,West,260,12.0,-999.0,46,-99.99,,,-99.99,dwt +perl,2013-06-18 08:39:00,
2013-06-18 01:44:00,51.4,30.8,24.96,WSW,241,14.0,-999.0,45,-99.99,,,-99.99,dwt +perl,2013-06-18 08:44:00,
2013-06-18 01:49:00,51.5,30.3,24.96,WSW,258,9.0,-999.0,44,-99.99,,,-99.99,dwt +perl,2013-06-18 08:49:00,
2013-06-18 01:54:00,51.4,30.8,24.96,WSW,245,10.0,-999.0,45,-99.99,,,-99.99,dwt +perl,2013-06-18 08:54:00,
2013-06-18 01:59:00,51.6,30.4,24.96,WSW,256,17.0,-999.0,44,-99.99,,,-99.99,dwt +perl,2013-06-18 08:59:00,
2013-06-18 02:04:00,52.8,29.1,24.96,WSW,256,11.0,-999.0,40,-99.99,,,-99.99,dwt +perl,2013-06-18 09:04:00,
2013-06-18 02:09:00,53.4,28.4,24.96,WNW,291,11.0,-999.0,38,-99.99,,,-99.99,dwt +perl,2013-06-18 09:09:00,
2013-06-18 02:14:00,53.1,28.2,24.96,WNW,289,17.0,-999.0,38,-99.99,,,-99.99,dwt +perl,2013-06-18 09:14:00,
2013-06-18 02:19:00,52.8,29.1,24.96,WSW,253,10.0,-999.0,40,-99.99,,,-99.99,dwt +perl,2013-06-18 09:19:00,
2013-06-18 02:24:00,52.3,30.5,24.96,WSW,255,9.0,-999.0,43,-99.99,,,-99.99,dwt +perl,2013-06-18 09:24:00,
2013-06-18 02:29:00,51.7,29.9,24.96,WSW,257,11.0,-999.0,43,-99.99,,,-99.99,dwt +perl,2013-06-18 09:29:00,
2013-06-18 02:34:00,51.3,30.1,24.96,WSW,253,14.0,-999.0,44,-99.99,,,-99.99,dwt +perl,2013-06-18 09:34:00,
2013-06-18 02:39:00,51.9,29.5,24.95,WSW,246,13.0,-999.0,42,-99.99,,,-99.99,dwt +perl,2013-06-18 09:39:00,
2013-06-18 02:44:00,52.0,29.0,24.95,West,266,14.0,-999.0,41,-99.99,,,-99.99,dwt +perl,2013-06-18 09:44:00,
2013-06-18 02:49:00,52.2,29.8,24.95,West,265,14.0,-999.0,42,-99.99,,,-99.99,dwt +perl,2013-06-18 09:49:00,
2013-06-18 02:54:00,52.5,29.5,24.95,West,275,12.0,-999.0,41,-99.99,,,-99.99,dwt +perl,2013-06-18 09:54:00,
2013-06-18 02:59:00,52.4,30.0,24.95,WSW,241,18.0,-999.0,42,-99.99,,,-99.99,dwt +perl,2013-06-18 09:59:00,
2013-06-18 03:04:00,52.7,30.3,24.95,West,264,13.0,-999.0,42,-99.99,,,-99.99,dwt +perl,2013-06-18 10:04:00,
2013-06-18 03:09:00,52.8,30.4,24.95,West,268,14.0,-999.0,42,-99.99,,,-99.99,dwt +perl,2013-06-18 10:09:00,
2013-06-18 03:14:00,52.8,29.8,24.95,WSW,247,16.0,-999.0,41,-99.99,,,-99.99,dwt +perl,2013-06-18 10:14:00,
2013-06-18 03:19:00,53.3,29.6,24.95,West,277,10.0,-999.0,40,-99.99,,,-99.99,dwt +perl,2013-06-18 10:19:00,
2013-06-18 03:24:00,53.4,30.3,24.95,WSW,253,10.0,-999.0,41,-99.99,,,-99.99,dwt +perl,2013-06-18 10:24:00,
2013-06-18 03:29:00,53.2,30.1,24.94,WSW,250,12.0,-999.0,41,-99.99,,,-99.99,dwt +perl,2013-06-18 10:29:00,
2013-06-18 03:34:00,53.1,29.4,24.95,WSW,249,13.0,-999.0,40,-99.99,,,-99.99,dwt +perl,2013-06-18 10:34:00,
2013-06-18 03:39:00,52.2,31.0,24.95,WSW,252,9.0,-999.0,44,-99.99,,,-99.99,dwt +perl,2013-06-18 10:39:00,
2013-06-18 03:44:00,51.1,31.6,24.95,WSW,253,9.0,-999.0,47,-99.99,,,-99.99,dwt +perl,2013-06-18 10:44:00,
2013-06-18 03:49:00,50.9,30.9,24.95,West,269,14.0,-999.0,46,-99.99,,,-99.99,dwt +perl,2013-06-18 10:49:00,
2013-06-18 03:54:00,51.5,30.3,24.94,West,263,16.0,-999.0,44,-99.99,,,-99.99,dwt +perl,2013-06-18 10:54:00,
2013-06-18 03:59:00,51.9,30.1,24.95,West,269,11.0,-999.0,43,-99.99,,,-99.99,dwt +perl,2013-06-18 10:59:00,
2013-06-18 04:04:00,52.0,30.2,24.94,West,268,12.0,-999.0,43,-99.99,,,-99.99,dwt +perl,2013-06-18 11:04:00,
2013-06-18 04:09:00,51.5,30.3,24.95,West,274,16.0,-999.0,44,-99.99,,,-99.99,dwt +perl,2013-06-18 11:09:00,
2013-06-18 04:14:00,51.4,29.1,24.94,West,266,13.0,-999.0,42,-99.99,,,-99.99,dwt +perl,2013-06-18 11:14:00,
2013-06-18 04:19:00,51.4,29.7,24.94,West,271,11.0,-999.0,43,-99.99,,,-99.99,dwt +perl,2013-06-18 11:19:00,
2013-06-18 04:24:00,51.0,31.0,24.94,West,278,14.0,-999.0,46,-99.99,,,-99.99,dwt +perl,2013-06-18 11:24:00,
2013-06-18 04:29:00,50.8,31.8,24.94,West,275,13.0,-999.0,48,-99.99,,,-99.99,dwt +perl,2013-06-18 11:29:00,
2013-06-18 04:34:00,51.0,29.3,24.94,West,269,12.0,-999.0,43,-99.99,,,-99.99,dwt +perl,2013-06-18 11:34:00,
2013-06-18 04:39:00,51.5,29.2,24.94,West,264,12.0,-999.0,42,-99.99,,,-99.99,dwt +perl,2013-06-18 11:39:00,
2013-06-18 04:44:00,51.8,28.2,24.94,WNW,288,9.0,-999.0,40,-99.99,,,-99.99,dwt +perl,2013-06-18 11:44:00,
2013-06-18 04:49:00,52.0,28.4,24.94,WSW,257,14.0,-999.0,40,-99.99,,,-99.99,dwt +perl,2013-06-18 11:49:00,
2013-06-18 04:54:00,51.4,30.2,24.93,WNW,282,16.0,-999.0,44,-99.99,,,-99.99,dwt +perl,2013-06-18 11:54:00,
2013-06-18 04:55:00,50.4,32.0,24.93,West,271,16.0,-999.0,49,-99.99,,,-99.99,dwt +perl,2013-06-18 11:55:00,
2013-06-18 04:59:00,50.7,30.1,24.94,West,272,15.0,-999.0,45,-99.99,,,-99.99,dwt +perl,2013-06-18 11:59:00,
2013-06-18 05:04:00,50.4,32.0,24.93,West,271,16.0,-999.0,49,-99.99,,,-99.99,dwt +perl,2013-06-18 12:04:00,
2013-06-18 05:14:00,50.8,29.1,24.93,WNW,284,13.0,-999.0,43,-99.99,,,-99.99,dwt +perl,2013-06-18 12:14:00,
2013-06-18 05:19:00,51.9,28.3,24.94,West,270,13.0,-999.0,40,-99.99,,,-99.99,dwt +perl,2013-06-18 12:19:00,
2013-06-18 05:24:00,52.7,27.8,24.93,WSW,256,16.0,-999.0,38,-99.99,,,-99.99,dwt +perl,2013-06-18 12:24:00,
2013-06-18 05:29:00,52.9,27.3,24.94,WSW,253,10.0,-999.0,37,-99.99,,,-99.99,dwt +perl,2013-06-18 12:29:00,
2013-06-18 05:34:00,52.0,28.4,24.94,West,281,13.0,-999.0,40,-99.99,,,-99.99,dwt +perl,2013-06-18 12:34:00,
2013-06-18 05:39:00,50.3,32.4,24.94,West,269,11.0,-999.0,50,-99.99,,,-99.99,dwt +perl,2013-06-18 12:39:00,
2013-06-18 05:44:00,49.2,33.3,24.94,West,272,11.0,-999.0,54,-99.99,,,-99.99,dwt +perl,2013-06-18 12:44:00,
2013-06-18 05:49:00,50.8,28.5,24.93,West,274,13.0,-999.0,42,-99.99,,,-99.99,dwt +perl,2013-06-18 12:49:00,
2013-06-18 05:54:00,50.0,35.8,24.94,WNW,287,12.0,-999.0,58,-99.99,,,-99.99,dwt +perl,2013-06-18 12:54:00,
2013-06-18 05:59:00,51.2,27.7,24.93,West,267,12.0,-999.0,40,-99.99,,,-99.99,dwt +perl,2013-06-18 12:59:00,
2013-06-18 06:04:00,52.3,27.5,24.94,West,260,12.0,-999.0,38,-99.99,,,-99.99,dwt +perl,2013-06-18 13:04:00,
2013-06-18 06:09:00,53.2,26.3,24.94,West,275,15.0,-999.0,35,-99.99,,,-99.99,dwt +perl,2013-06-18 13:09:00,
2013-06-18 06:14:00,53.7,25.3,24.94,West,263,11.0,-999.0,33,-99.99,,,-99.99,dwt +perl,2013-06-18 13:14:00,
2013-06-18 06:19:00,53.5,25.8,24.94,WNW,290,10.0,-999.0,34,-99.99,,,-99.99,dwt +perl,2013-06-18 13:19:00,
2013-06-18 06:24:00,53.0,26.1,24.94,WNW,286,12.0,-999.0,35,-99.99,,,-99.99,dwt +perl,2013-06-18 13:24:00,
2013-06-18 06:29:00,52.3,28.7,24.94,WNW,285,11.0,-999.0,40,-99.99,,,-99.99,dwt +perl,2013-06-18 13:29:00,
2013-06-18 06:34:00,51.4,29.7,24.94,WNW,283,14.0,-999.0,43,-99.99,,,-99.99,dwt +perl,2013-06-18 13:34:00,
2013-06-18 06:39:00,51.1,29.4,24.94,NW,307,11.0,-999.0,43,-99.99,,,-99.99,dwt +perl,2013-06-18 13:39:00,
2013-06-18 06:44:00,51.8,26.4,24.94,West,271,12.0,-999.0,37,-99.99,,,-99.99,dwt +perl,2013-06-18 13:44:00,
2013-06-18 06:49:00,52.6,22.8,24.94,West,275,8.0,-999.0,31,-99.99,,,-99.99,dwt +perl,2013-06-18 13:49:00,
2013-06-18 06:54:00,53.1,18.2,24.94,WNW,287,10.0,-999.0,25,-99.99,,,-99.99,dwt +perl,2013-06-18 13:54:00,
2013-06-18 06:59:00,53.7,16.8,24.94,WNW,288,10.0,-999.0,23,-99.99,,,-99.99,dwt +perl,2013-06-18 13:59:00,
2013-06-18 07:04:00,53.7,17.8,24.94,West,260,12.0,-999.0,24,-99.99,,,-99.99,dwt +perl,2013-06-18 14:04:00,
2013-06-18 07:09:00,53.5,18.6,24.94,WNW,299,9.0,-999.0,25,-99.99,,,-99.99,dwt +perl,2013-06-18 14:09:00,
2013-06-18 07:14:00,53.9,15.9,24.94,WNW,290,8.0,-999.0,22,-99.99,,,-99.99,dwt +perl,2013-06-18 14:14:00,
2013-06-18 07:19:00,53.9,18.0,24.95,WNW,295,8.0,-999.0,24,-99.99,,,-99.99,dwt +perl,2013-06-18 14:19:00,
2013-06-18 07:20:00,53.9,20.7,24.95,NW,309,8.0,-999.0,27,-99.99,,,-99.99,dwt +perl,2013-06-18 14:20:00,
2013-06-18 07:24:00,53.9,17.0,24.95,NW,323,7.0,-999.0,23,-99.99,,,-99.99,dwt +perl,2013-06-18 14:24:00,
2013-06-18 07:29:00,53.9,20.7,24.95,NW,309,8.0,-999.0,27,-99.99,,,-99.99,dwt +perl,2013-06-18 14:29:00,
2013-06-18 07:39:00,54.8,21.5,24.95,NW,312,6.0,-999.0,27,-99.99,,,-99.99,dwt +perl,2013-06-18 14:39:00,
2013-06-18 07:44:00,55.1,19.0,24.95,NNE,29,0.0,-999.0,24,-99.99,,,-99.99,dwt +perl,2013-06-18 14:44:00,
2013-06-18 07:49:00,55.3,22.8,24.95,NW,323,8.0,-999.0,28,-99.99,,,-99.99,dwt +perl,2013-06-18 14:49:00,
2013-06-18 07:54:00,55.2,19.0,24.95,NW,317,3.0,-999.0,24,-99.99,,,-99.99,dwt +perl,2013-06-18 14:54:00,
2013-06-18 07:59:00,53.7,23.8,24.95,WNW,299,10.0,-999.0,31,-99.99,,,-99.99,dwt +perl,2013-06-18 14:59:00,
2013-06-18 08:04:00,51.3,27.2,24.95,WNW,296,8.0,-999.0,39,-99.99,,,-99.99,dwt +perl,2013-06-18 15:04:00,
2013-06-18 08:09:00,49.6,29.1,24.96,West,266,7.0,-999.0,45,-99.99,,,-99.99,dwt +perl,2013-06-18 15:09:00,
2013-06-18 08:14:00,49.8,24.6,24.95,NW,312,7.0,-999.0,37,-99.99,,,-99.99,dwt +perl,2013-06-18 15:14:00,
2013-06-18 08:19:00,51.0,20.7,24.96,NW,317,11.0,-999.0,30,-99.99,,,-99.99,dwt +perl,2013-06-18 15:19:00,
2013-06-18 08:24:00,52.2,22.5,24.96,West,264,11.0,-999.0,31,-99.99,,,-99.99,dwt +perl,2013-06-18 15:24:00,
2013-06-18 08:29:00,53.3,20.2,24.96,WSW,250,6.0,-999.0,27,-99.99,,,-99.99,dwt +perl,2013-06-18 15:29:00,
2013-06-18 08:34:00,52.9,27.3,24.96,West,264,5.0,-999.0,37,-99.99,,,-99.99,dwt +perl,2013-06-18 15:34:00,
2013-06-18 08:39:00,51.6,30.4,24.96,West,269,4.0,-999.0,44,-99.99,,,-99.99,dwt +perl,2013-06-18 15:39:00,
2013-06-18 08:44:00,49.6,36.3,24.96,West,263,5.0,-999.0,60,-99.99,,,-99.99,dwt +perl,2013-06-18 15:44:00,
2013-06-18 08:49:00,48.8,32.9,24.96,West,266,7.0,-999.0,54,-99.99,,,-99.99,dwt +perl,2013-06-18 15:49:00,
2013-06-18 08:54:00,48.6,36.2,24.96,WSW,251,5.0,-999.0,62,-99.99,,,-99.99,dwt +perl,2013-06-18 15:54:00,
2013-06-18 08:59:00,47.2,38.3,24.96,WSW,251,9.0,-999.0,71,-99.99,,,-99.99,dwt +perl,2013-06-18 15:59:00,
2013-06-18 09:04:00,46.0,37.8,24.96,WSW,245,13.0,-999.0,73,-99.99,,,-99.99,dwt +perl,2013-06-18 16:04:00,
2013-06-18 09:09:00,46.4,36.8,24.96,WSW,241,11.0,-999.0,69,-99.99,,,-99.99,dwt +perl,2013-06-18 16:09:00,
2013-06-18 09:14:00,47.2,32.3,24.97,WNW,288,10.0,-999.0,56,-99.99,,,-99.99,dwt +perl,2013-06-18 16:14:00,
2013-06-18 09:19:00,49.2,30.9,24.97,West,275,11.0,-999.0,49,-99.99,,,-99.99,dwt +perl,2013-06-18 16:19:00,
2013-06-18 09:24:00,49.6,30.7,24.97,West,266,4.0,-999.0,48,-99.99,,,-99.99,dwt +perl,2013-06-18 16:24:00,
2013-06-18 09:29:00,50.2,30.8,24.97,WNW,301,8.0,-999.0,47,-99.99,,,-99.99,dwt +perl,2013-06-18 16:29:00,
2013-06-18 09:34:00,50.6,33.1,24.97,West,262,8.0,-999.0,51,-99.99,,,-99.99,dwt +perl,2013-06-18 16:34:00,
2013-06-18 09:39:00,49.4,36.1,24.97,WSW,253,8.0,-999.0,60,-99.99,,,-99.99,dwt +perl,2013-06-18 16:39:00,
2013-06-18 09:44:00,48.4,35.6,24.96,WSW,253,10.0,-999.0,61,-99.99,,,-99.99,dwt +perl,2013-06-18 16:44:00,
2013-06-18 09:49:00,48.6,35.3,24.96,WSW,243,9.0,-999.0,60,-99.99,,,-99.99,dwt +perl,2013-06-18 16:49:00,
2013-06-18 09:54:00,48.5,35.2,24.96,WSW,249,4.0,-999.0,60,-99.99,,,-99.99,dwt +perl,2013-06-18 16:54:00,
2013-06-18 09:59:00,48.4,33.9,24.96,WSW,253,4.0,-999.0,57,-99.99,,,-99.99,dwt +perl,2013-06-18 16:59:00,
2013-06-18 10:04:00,49.3,34.7,24.96,WSW,256,4.0,-999.0,57,-99.99,,,-99.99,dwt +perl,2013-06-18 17:04:00,
2013-06-18 10:09:00,49.9,34.4,24.96,West,260,5.0,-999.0,55,-99.99,,,-99.99,dwt +perl,2013-06-18 17:09:00,
2013-06-18 10:14:00,50.1,34.6,24.96,SW,235,7.0,-999.0,55,-99.99,,,-99.99,dwt +perl,2013-06-18 17:14:00,
2013-06-18 10:19:00,49.6,37.1,24.97,SW,226,7.0,-999.0,62,-99.99,,,-99.99,dwt +perl,2013-06-18 17:19:00,
2013-06-18 10:24:00,49.7,37.2,24.96,SW,220,12.0,-999.0,62,-99.99,,,-99.99,dwt +perl,2013-06-18 17:24:00,
2013-06-18 10:29:00,49.0,36.5,24.97,WSW,245,8.0,-999.0,62,-99.99,,,-99.99,dwt +perl,2013-06-18 17:29:00,
2013-06-18 10:34:00,48.5,37.7,24.96,SW,227,9.0,-999.0,66,-99.99,,,-99.99,dwt +perl,2013-06-18 17:34:00,
2013-06-18 10:39:00,48.5,38.4,24.97,SW,218,10.0,-999.0,68,-99.99,,,-99.99,dwt +perl,2013-06-18 17:39:00,
2013-06-18 10:44:00,48.1,37.7,24.97,West,260,6.0,-999.0,67,-99.99,,,-99.99,dwt +perl,2013-06-18 17:44:00,
2013-06-18 10:49:00,47.2,37.2,24.97,WSW,237,10.0,-999.0,68,-99.99,,,-99.99,dwt +perl,2013-06-18 17:49:00,
2013-06-18 10:54:00,47.6,37.6,24.97,WSW,253,6.0,-999.0,68,-99.99,,,-99.99,dwt +perl,2013-06-18 17:54:00,
2013-06-18 10:59:00,47.6,38.3,24.97,WSW,249,10.0,-999.0,70,-99.99,,,-99.99,dwt +perl,2013-06-18 17:59:00,
2013-06-18 11:04:00,48.5,38.8,24.97,WSW,254,8.0,-999.0,69,-99.99,,,-99.99,dwt +perl,2013-06-18 18:04:00,
2013-06-18 11:09:00,49.3,38.8,24.97,WNW,282,5.0,-999.0,67,-99.99,,,-99.99,dwt +perl,2013-06-18 18:09:00,
2013-06-18 11:14:00,49.5,39.4,24.98,WSW,240,12.0,-999.0,68,-99.99,,,-99.99,dwt +perl,2013-06-18 18:14:00,
2013-06-18 11:19:00,49.5,37.4,24.98,WSW,241,10.0,-999.0,63,-99.99,,,-99.99,dwt +perl,2013-06-18 18:19:00,
2013-06-18 11:24:00,50.0,38.7,24.98,West,272,8.0,-999.0,65,-99.99,,,-99.99,dwt +perl,2013-06-18 18:24:00,
2013-06-18 11:29:00,50.3,38.6,24.98,SW,221,8.0,-999.0,64,-99.99,,,-99.99,dwt +perl,2013-06-18 18:29:00,
2013-06-18 11:34:00,50.6,38.5,24.98,West,272,6.0,-999.0,63,-99.99,,,-99.99,dwt +perl,2013-06-18 18:34:00,
2013-06-18 11:39:00,51.5,39.3,24.98,WSW,256,6.0,-999.0,63,-99.99,,,-99.99,dwt +perl,2013-06-18 18:39:00,
2013-06-18 11:44:00,51.6,38.6,24.98,SW,231,7.0,-999.0,61,-99.99,,,-99.99,dwt +perl,2013-06-18 18:44:00,
2013-06-18 11:49:00,52.1,38.6,24.98,WSW,239,7.0,-999.0,60,-99.99,,,-99.99,dwt +perl,2013-06-18 18:49:00,
2013-06-18 11:54:00,52.7,38.8,24.98,SW,220,5.0,-999.0,59,-99.99,,,-99.99,dwt +perl,2013-06-18 18:54:00,
2013-06-18 11:59:00,53.4,38.5,24.98,WSW,239,8.0,-999.0,57,-99.99,,,-99.99,dwt +perl,2013-06-18 18:59:00,
2013-06-18 12:04:00,53.2,37.9,24.98,WNW,285,5.0,-999.0,56,-99.99,,,-99.99,dwt +perl,2013-06-18 19:04:00,
2013-06-18 12:09:00,52.1,38.2,24.98,WSW,244,11.0,-999.0,59,-99.99,,,-99.99,dwt +perl,2013-06-18 19:09:00,
2013-06-18 12:14:00,52.1,39.5,24.98,WSW,256,7.0,-999.0,62,-99.99,,,-99.99,dwt +perl,2013-06-18 19:14:00,
2013-06-18 12:19:00,51.4,39.6,24.98,WSW,237,11.0,-999.0,64,-99.99,,,-99.99,dwt +perl,2013-06-18 19:19:00,
2013-06-18 12:24:00,51.4,39.2,24.98,SSW,208,10.0,-999.0,63,-99.99,,,-99.99,dwt +perl,2013-06-18 19:24:00,
2013-06-18 12:25:00,52.0,39.0,24.98,West,264,6.0,-999.0,61,-99.99,,,-99.99,dwt +perl,2013-06-18 19:25:00,
2013-06-18 12:29:00,51.9,39.3,24.98,SW,231,12.0,-999.0,62,-99.99,,,-99.99,dwt +perl,2013-06-18 19:29:00,
2013-06-18 12:34:00,52.0,39.0,24.98,West,264,6.0,-999.0,61,-99.99,,,-99.99,dwt +perl,2013-06-18 19:34:00,
2013-06-18 12:44:00,51.7,39.1,24.97,West,266,8.0,-999.0,62,-99.99,,,-99.99,dwt +perl,2013-06-18 19:44:00,
2013-06-18 12:49:00,51.8,40.0,24.98,WSW,243,6.0,-999.0,64,-99.99,,,-99.99,dwt +perl,2013-06-18 19:49:00,
2013-06-18 12:54:00,51.9,40.5,24.98,WSW,254,9.0,-999.0,65,-99.99,,,-99.99,dwt +perl,2013-06-18 19:54:00,
2013-06-18 12:59:00,51.8,39.6,24.98,SW,235,13.0,-999.0,63,-99.99,,,-99.99,dwt +perl,2013-06-18 19:59:00,
2013-06-18 13:04:00,52.3,41.3,24.97,West,273,12.0,-999.0,66,-99.99,,,-99.99,dwt +perl,2013-06-18 20:04:00,
2013-06-18 13:09:00,52.2,41.2,24.97,WSW,249,7.0,-999.0,66,-99.99,,,-99.99,dwt +perl,2013-06-18 20:09:00,
2013-06-18 13:14:00,53.1,40.8,24.97,WSW,239,14.0,-999.0,63,-99.99,,,-99.99,dwt +perl,2013-06-18 20:14:00,
2013-06-18 13:19:00,52.6,40.8,24.97,West,262,9.0,-999.0,64,-99.99,,,-99.99,dwt +perl,2013-06-18 20:19:00,
2013-06-18 13:24:00,52.3,41.3,24.97,WSW,237,19.0,-999.0,66,-99.99,,,-99.99,dwt +perl,2013-06-18 20:24:00,
2013-06-18 13:29:00,51.5,40.5,24.97,West,272,7.0,-999.0,66,-99.99,,,-99.99,dwt +perl,2013-06-18 20:29:00,
2013-06-18 13:34:00,52.5,41.9,24.97,WSW,239,13.0,-999.0,67,-99.99,,,-99.99,dwt +perl,2013-06-18 20:34:00,
2013-06-18 13:39:00,52.3,41.7,24.97,WSW,246,11.0,-999.0,67,-99.99,,,-99.99,dwt +perl,2013-06-18 20:39:00,
2013-06-18 13:44:00,52.1,42.2,24.97,WSW,246,12.0,-999.0,69,-99.99,,,-99.99,dwt +perl,2013-06-18 20:44:00,
2013-06-18 13:49:00,52.1,41.9,24.97,SW,236,11.0,-999.0,68,-99.99,,,-99.99,dwt +perl,2013-06-18 20:49:00,
2013-06-18 13:54:00,52.2,42.3,24.97,WNW,284,14.0,-999.0,69,-99.99,,,-99.99,dwt +perl,2013-06-18 20:54:00,
2013-06-18 13:59:00,51.9,42.8,24.97,West,272,11.0,-999.0,71,-99.99,,,-99.99,dwt +perl,2013-06-18 20:59:00,
2013-06-18 14:09:00,51.7,41.5,24.97,West,267,7.0,-999.0,68,-99.99,,,-99.99,dwt +perl,2013-06-18 21:09:00,
2013-06-18 14:14:00,51.8,41.2,24.97,WSW,249,10.0,-999.0,67,-99.99,,,-99.99,dwt +perl,2013-06-18 21:14:00,
2013-06-18 14:19:00,52.3,40.9,24.97,WSW,248,10.0,-999.0,65,-99.99,,,-99.99,dwt +perl,2013-06-18 21:19:00,
2013-06-18 14:29:00,52.5,40.3,24.97,SW,235,13.0,-999.0,63,-99.99,,,-99.99,dwt +perl,2013-06-18 21:29:00,
2013-06-18 14:34:00,52.8,41.0,24.97,WSW,243,13.0,-999.0,64,-99.99,,,-99.99,dwt +perl,2013-06-18 21:34:00,
2013-06-18 14:39:00,52.2,40.8,24.97,West,276,16.0,-999.0,65,-99.99,,,-99.99,dwt +perl,2013-06-18 21:39:00,
2013-06-18 14:44:00,52.2,40.0,24.97,SW,234,16.0,-999.0,63,-99.99,,,-99.99,dwt +perl,2013-06-18 21:44:00,
2013-06-18 14:49:00,52.4,41.0,24.97,WSW,239,12.0,-999.0,65,-99.99,,,-99.99,dwt +perl,2013-06-18 21:49:00,
2013-06-18 14:59:00,52.7,40.5,24.97,SW,235,11.0,-999.0,63,-99.99,,,-99.99,dwt +perl,2013-06-18 21:59:00,
2013-06-18 15:09:00,52.1,39.9,24.97,West,268,10.0,-999.0,63,-99.99,,,-99.99,dwt +perl,2013-06-18 22:09:00,
2013-06-18 15:14:00,51.5,40.1,24.97,WSW,249,8.0,-999.0,65,-99.99,,,-99.99,dwt +perl,2013-06-18 22:14:00,
2013-06-18 15:19:00,52.3,40.5,24.97,West,270,12.0,-999.0,64,-99.99,,,-99.99,dwt +perl,2013-06-18 22:19:00,
2013-06-18 15:24:00,52.2,40.8,24.97,West,266,9.0,-999.0,65,-99.99,,,-99.99,dwt +perl,2013-06-18 22:24:00,
2013-06-18 15:29:00,52.5,41.1,24.97,SW,233,10.0,-999.0,65,-99.99,,,-99.99,dwt +perl,2013-06-18 22:29:00,
2013-06-18 15:39:00,51.7,39.5,24.97,WSW,256,14.0,-999.0,63,-99.99,,,-99.99,dwt +perl,2013-06-18 22:39:00,
2013-06-18 15:44:00,51.9,39.3,24.97,SW,236,16.0,-999.0,62,-99.99,,,-99.99,dwt +perl,2013-06-18 22:44:00,
2013-06-18 15:49:00,51.5,38.9,24.97,SW,233,18.0,-999.0,62,-99.99,,,-99.99,dwt +perl,2013-06-18 22:49:00,
2013-06-18 15:54:00,51.1,38.5,24.97,SW,233,9.0,-999.0,62,-99.99,,,-99.99,dwt +perl,2013-06-18 22:54:00,
2013-06-18 15:59:00,50.7,39.0,24.97,WSW,237,13.0,-999.0,64,-99.99,,,-99.99,dwt +perl,2013-06-18 22:59:00,
2013-06-18 16:04:00,51.0,39.2,24.96,WSW,240,14.0,-999.0,64,-99.99,,,-99.99,dwt +perl,2013-06-18 23:04:00,
2013-06-18 16:09:00,50.3,38.6,24.96,SW,236,10.0,-999.0,64,-99.99,,,-99.99,dwt +perl,2013-06-18 23:09:00,
2013-06-18 16:14:00,50.4,37.5,24.96,WSW,244,13.0,-999.0,61,-99.99,,,-99.99,dwt +perl,2013-06-18 23:14:00,
2013-06-18 16:19:00,50.6,39.3,24.96,WSW,243,17.0,-999.0,65,-99.99,,,-99.99,dwt +perl,2013-06-18 23:19:00,
2013-06-18 16:24:00,50.9,38.3,24.97,WSW,258,14.0,-999.0,62,-99.99,,,-99.99,dwt +perl,2013-06-18 23:24:00,
2013-06-18 16:29:00,50.2,38.9,24.96,WSW,238,14.0,-999.0,65,-99.99,,,-99.99,dwt +perl,2013-06-18 23:29:00,
2013-06-18 16:34:00,50.7,39.0,24.97,SW,234,13.0,-999.0,64,-99.99,,,-99.99,dwt +perl,2013-06-18 23:34:00,
2013-06-18 16:39:00,50.7,38.6,24.96,SW,233,16.0,-999.0,63,-99.99,,,-99.99,dwt +perl,2013-06-18 23:39:00,
2013-06-18 16:44:00,50.3,39.4,24.96,WSW,253,8.0,-999.0,66,-99.99,,,-99.99,dwt +perl,2013-06-18 23:44:00,
2013-06-18 16:49:00,49.6,39.1,24.96,WSW,250,11.0,-999.0,67,-99.99,,,-99.99,dwt +perl,2013-06-18 23:49:00,
2013-06-18 16:59:00,49.4,39.3,24.96,SW,230,17.0,-999.0,68,-99.99,,,-99.99,dwt +perl,2013-06-18 23:59:00,
2013-06-18 17:04:00,48.9,38.8,24.96,WSW,243,12.0,-999.0,68,-99.99,,,-99.99,dwt +perl,2013-06-19 00:04:00,
2013-06-18 17:05:00,47.7,38.4,24.96,SW,233,11.0,-999.0,70,-99.99,,,-99.99,dwt +perl,2013-06-19 00:05:00,
2013-06-18 17:09:00,48.3,39.0,24.96,WSW,251,15.0,-999.0,70,-99.99,,,-99.99,dwt +perl,2013-06-19 00:09:00,
2013-06-18 17:14:00,47.7,38.4,24.96,SW,233,11.0,-999.0,70,-99.99,,,-99.99,dwt +perl,2013-06-19 00:14:00,
2013-06-18 17:24:00,48.2,38.5,24.96,West,273,17.0,-999.0,69,-99.99,,,-99.99,dwt +perl,2013-06-19 00:24:00,
2013-06-18 17:29:00,47.8,38.5,24.96,WSW,253,12.0,-999.0,70,-99.99,,,-99.99,dwt +perl,2013-06-19 00:29:00,
2013-06-18 17:34:00,47.7,38.4,24.96,SW,231,18.0,-999.0,70,-99.99,,,-99.99,dwt +perl,2013-06-19 00:34:00,
2013-06-18 17:39:00,47.0,37.7,24.95,WSW,239,16.0,-999.0,70,-99.99,,,-99.99,dwt +perl,2013-06-19 00:39:00,
2013-06-18 17:44:00,46.4,38.2,24.96,West,271,13.0,-999.0,73,-99.99,,,-99.99,dwt +perl,2013-06-19 00:44:00,
2013-06-18 17:49:00,46.4,37.9,24.96,West,268,10.0,-999.0,72,-99.99,,,-99.99,dwt +perl,2013-06-19 00:49:00,
2013-06-18 17:54:00,46.3,37.8,24.96,WSW,239,12.0,-999.0,72,-99.99,,,-99.99,dwt +perl,2013-06-19 00:54:00,
2013-06-18 17:55:00,45.9,37.0,24.96,West,275,15.0,-999.0,71,-99.99,,,-99.99,dwt +perl,2013-06-19 00:55:00,
2013-06-18 17:59:00,45.9,37.4,24.96,WSW,247,15.0,-999.0,72,-99.99,,,-99.99,dwt +perl,2013-06-19 00:59:00,
2013-06-18 18:04:00,45.9,37.0,24.96,West,275,15.0,-999.0,71,-99.99,,,-99.99,dwt +perl,2013-06-19 01:04:00,
2013-06-18 18:14:00,45.9,37.4,24.96,WSW,248,16.0,-999.0,72,-99.99,,,-99.99,dwt +perl,2013-06-19 01:14:00,
2013-06-18 18:19:00,45.4,37.3,24.96,West,276,14.0,-999.0,73,-99.99,,,-99.99,dwt +perl,2013-06-19 01:19:00,
2013-06-18 18:24:00,45.4,37.3,24.96,West,262,11.0,-999.0,73,-99.99,,,-99.99,dwt +perl,2013-06-19 01:24:00,
2013-06-18 18:29:00,44.4,36.6,24.96,WSW,253,13.0,-999.0,74,-99.99,,,-99.99,dwt +perl,2013-06-19 01:29:00,
2013-06-18 18:34:00,44.4,36.6,24.96,WSW,256,11.0,-999.0,74,-99.99,,,-99.99,dwt +perl,2013-06-19 01:34:00,
2013-06-18 18:39:00,44.1,36.3,24.96,West,268,12.0,-999.0,74,-99.99,,,-99.99,dwt +perl,2013-06-19 01:39:00,
2013-06-18 18:44:00,44.2,36.4,24.96,WSW,253,12.0,-999.0,74,-99.99,,,-99.99,dwt +perl,2013-06-19 01:44:00,
2013-06-18 18:49:00,44.4,36.6,24.96,WSW,243,15.0,-999.0,74,-99.99,,,-99.99,dwt +perl,2013-06-19 01:49:00,
2013-06-18 18:54:00,43.8,36.1,24.95,West,260,9.0,-999.0,74,-99.99,,,-99.99,dwt +perl,2013-06-19 01:54:00,
2013-06-18 18:59:00,43.4,36.3,24.95,WSW,252,14.0,-999.0,76,-99.99,,,-99.99,dwt +perl,2013-06-19 01:59:00,
2013-06-18 19:04:00,43.1,36.7,24.95,WSW,243,15.0,-999.0,78,-99.99,,,-99.99,dwt +perl,2013-06-19 02:04:00,
2013-06-18 19:09:00,42.9,37.2,24.95,WSW,252,14.0,-999.0,80,-99.99,,,-99.99,dwt +perl,2013-06-19 02:09:00,
2013-06-18 19:14:00,42.5,37.1,24.95,WSW,255,12.0,-999.0,81,-99.99,,,-99.99,dwt +perl,2013-06-19 02:14:00,
2013-06-18 19:19:00,42.2,37.1,24.95,WSW,254,11.0,-999.0,82,-99.99,,,-99.99,dwt +perl,2013-06-19 02:19:00,
2013-06-18 19:24:00,41.7,37.5,24.96,WSW,253,13.0,-999.0,85,-99.99,,,-99.99,dwt +perl,2013-06-19 02:24:00,
2013-06-18 19:29:00,41.4,37.5,24.96,WSW,255,11.0,-999.0,86,-99.99,,,-99.99,dwt +perl,2013-06-19 02:29:00,
2013-06-18 19:34:00,40.8,37.5,24.96,WSW,249,13.0,-999.0,88,-99.99,,,-99.99,dwt +perl,2013-06-19 02:34:00,
2013-06-18 19:39:00,40.0,37.0,24.96,WSW,245,18.0,-999.0,89,-99.99,,,-99.99,dwt +perl,2013-06-19 02:39:00,
2013-06-18 19:44:00,39.7,37.3,24.96,WSW,251,15.0,-999.0,91,-99.99,,,-99.99,dwt +perl,2013-06-19 02:44:00,
2013-06-18 19:49:00,39.4,37.0,24.96,WSW,242,20.0,-999.0,91,-99.99,,,-99.99,dwt +perl,2013-06-19 02:49:00,
2013-06-18 19:54:00,38.9,36.8,24.96,WSW,239,20.0,-999.0,92,-99.99,,,-99.99,dwt +perl,2013-06-19 02:54:00,
2013-06-18 19:59:00,38.8,37.0,24.95,WSW,239,21.0,-999.0,93,-99.99,,,-99.99,dwt +perl,2013-06-19 02:59:00,
2013-06-18 20:04:00,38.7,36.8,24.96,SW,230,17.0,-999.0,93,-99.99,,,-99.99,dwt +perl,2013-06-19 03:04:00,
2013-06-18 20:09:00,38.4,36.5,24.96,West,281,15.0,-999.0,93,-99.99,,,-99.99,dwt +perl,2013-06-19 03:09:00,
2013-06-18 20:14:00,38.4,36.5,24.96,WSW,247,11.0,-999.0,93,-99.99,,,-99.99,dwt +perl,2013-06-19 03:14:00,
2013-06-18 20:19:00,38.4,36.0,24.96,West,267,13.0,-999.0,91,-99.99,,,-99.99,dwt +perl,2013-06-19 03:19:00,
2013-06-18 20:24:00,38.2,35.8,24.96,WSW,249,18.0,-999.0,91,-99.99,,,-99.99,dwt +perl,2013-06-19 03:24:00,
2013-06-18 20:29:00,38.2,35.2,24.96,WSW,239,15.0,-999.0,89,-99.99,,,-99.99,dwt +perl,2013-06-19 03:29:00,
2013-06-18 20:34:00,37.9,35.0,24.96,West,272,18.0,-999.0,89,-99.99,,,-99.99,dwt +perl,2013-06-19 03:34:00,
2013-06-18 20:39:00,37.9,34.7,24.96,WSW,246,14.0,-999.0,88,-99.99,,,-99.99,dwt +perl,2013-06-19 03:39:00,
2013-06-18 20:44:00,37.7,35.0,24.96,WSW,256,16.0,-999.0,90,-99.99,,,-99.99,dwt +perl,2013-06-19 03:44:00,
2013-06-18 20:49:00,37.4,35.0,24.96,West,276,13.0,-999.0,91,-99.99,,,-99.99,dwt +perl,2013-06-19 03:49:00,
2013-06-18 20:54:00,37.7,35.0,24.97,West,268,14.0,-999.0,90,-99.99,,,-99.99,dwt +perl,2013-06-19 03:54:00,
2013-06-18 20:59:00,38.0,34.5,24.97,West,273,16.0,-999.0,87,-99.99,,,-99.99,dwt +perl,2013-06-19 03:59:00,
2013-06-18 21:04:00,37.6,34.4,24.97,West,272,12.0,-999.0,88,-99.99,,,-99.99,dwt +perl,2013-06-19 04:04:00,
2013-06-18 21:09:00,37.8,34.6,24.97,WSW,255,13.0,-999.0,88,-99.99,,,-99.99,dwt +perl,2013-06-19 04:09:00,
2013-06-18 21:14:00,38.0,34.2,24.97,West,263,13.0,-999.0,86,-99.99,,,-99.99,dwt +perl,2013-06-19 04:14:00,
2013-06-18 21:19:00,38.4,33.7,24.97,West,279,14.0,-999.0,83,-99.99,,,-99.99,dwt +perl,2013-06-19 04:19:00,
2013-06-18 21:24:00,39.5,32.6,24.97,West,272,15.0,-999.0,76,-99.99,,,-99.99,dwt +perl,2013-06-19 04:24:00,
2013-06-18 21:29:00,41.3,28.9,24.97,West,279,11.0,-999.0,61,-99.99,,,-99.99,dwt +perl,2013-06-19 04:29:00,
2013-06-18 21:34:00,40.2,32.2,24.97,West,271,16.0,-999.0,73,-99.99,,,-99.99,dwt +perl,2013-06-19 04:34:00,
2013-06-18 21:39:00,38.7,33.1,24.97,West,265,15.0,-999.0,80,-99.99,,,-99.99,dwt +perl,2013-06-19 04:39:00,
2013-06-18 21:44:00,37.8,33.4,24.96,WSW,238,18.0,-999.0,84,-99.99,,,-99.99,dwt +perl,2013-06-19 04:44:00,
2013-06-18 21:49:00,36.5,33.6,24.96,WSW,246,15.0,-999.0,89,-99.99,,,-99.99,dwt +perl,2013-06-19 04:49:00,
2013-06-18 21:54:00,36.2,33.8,24.96,West,260,20.0,-999.0,91,-99.99,,,-99.99,dwt +perl,2013-06-19 04:54:00,
2013-06-18 21:59:00,36.2,34.1,24.96,WSW,245,21.0,-999.0,92,-99.99,,,-99.99,dwt +perl,2013-06-19 04:59:00,
2013-06-18 22:04:00,36.1,34.0,24.96,West,268,19.0,-999.0,92,-99.99,,,-99.99,dwt +perl,2013-06-19 05:04:00,
2013-06-18 22:09:00,36.2,34.1,24.97,WSW,257,19.0,-999.0,92,-99.99,,,-99.99,dwt +perl,2013-06-19 05:09:00,
2013-06-18 22:14:00,36.9,34.0,24.97,WSW,254,16.0,-999.0,89,-99.99,,,-99.99,dwt +perl,2013-06-19 05:14:00,
2013-06-18 22:19:00,36.9,33.7,24.97,WSW,258,16.0,-999.0,88,-99.99,,,-99.99,dwt +perl,2013-06-19 05:19:00,
2013-06-18 22:24:00,37.0,33.5,24.97,West,276,17.0,-999.0,87,-99.99,,,-99.99,dwt +perl,2013-06-19 05:24:00,
2013-06-18 22:29:00,36.5,33.6,24.97,West,272,21.0,-999.0,89,-99.99,,,-99.99,dwt +perl,2013-06-19 05:29:00,
2013-06-18 22:34:00,36.4,33.8,24.97,West,264,17.0,-999.0,90,-99.99,,,-99.99,dwt +perl,2013-06-19 05:34:00,
2013-06-18 22:39:00,36.1,34.0,24.97,West,261,14.0,-999.0,92,-99.99,,,-99.99,dwt +perl,2013-06-19 05:39:00,
2013-06-18 22:44:00,36.2,34.1,24.97,West,270,18.0,-999.0,92,-99.99,,,-99.99,dwt +perl,2013-06-19 05:44:00,
2013-06-18 22:49:00,36.7,33.8,24.97,West,276,18.0,-999.0,89,-99.99,,,-99.99,dwt +perl,2013-06-19 05:49:00,
2013-06-18 22:54:00,36.9,33.7,24.97,WSW,256,17.0,-999.0,88,-99.99,,,-99.99,dwt +perl,2013-06-19 05:54:00,
2013-06-18 22:59:00,37.3,33.2,24.97,West,271,20.0,-999.0,85,-99.99,,,-99.99,dwt +perl,2013-06-19 05:59:00,
2013-06-18 23:04:00,37.6,33.2,24.97,WNW,295,24.0,-999.0,84,-99.99,,,-99.99,dwt +perl,2013-06-19 06:04:00,
2013-06-18 23:09:00,37.3,33.5,24.97,West,278,24.0,-999.0,86,-99.99,,,-99.99,dwt +perl,2013-06-19 06:09:00,
2013-06-18 23:14:00,38.0,32.7,24.97,WNW,284,17.0,-999.0,81,-99.99,,,-99.99,dwt +perl,2013-06-19 06:14:00,
2013-06-18 23:19:00,37.9,32.9,24.97,West,279,23.0,-999.0,82,-99.99,,,-99.99,dwt +perl,2013-06-19 06:19:00,
2013-06-18 23:24:00,38.3,32.0,24.97,West,270,15.0,-999.0,78,-99.99,,,-99.99,dwt +perl,2013-06-19 06:24:00,
2013-06-18 23:29:00,38.1,32.5,24.97,West,276,23.0,-999.0,80,-99.99,,,-99.99,dwt +perl,2013-06-19 06:29:00,
2013-06-18 23:34:00,37.6,32.3,24.97,WNW,285,21.0,-999.0,81,-99.99,,,-99.99,dwt +perl,2013-06-19 06:34:00,
2013-06-18 23:39:00,36.9,33.1,24.97,West,262,19.0,-999.0,86,-99.99,,,-99.99,dwt +perl,2013-06-19 06:39:00,
2013-06-18 23:44:00,37.0,33.2,24.97,West,279,22.0,-999.0,86,-99.99,,,-99.99,dwt +perl,2013-06-19 06:44:00,
2013-06-18 23:49:00,37.6,32.6,24.97,West,280,27.0,-999.0,82,-99.99,,,-99.99,dwt +perl,2013-06-19 06:49:00,
2013-06-18 23:54:00,37.6,33.2,24.97,West,274,27.0,-999.0,84,-99.99,,,-99.99,dwt +perl,2013-06-19 06:54:00,
2013-06-18 23:59:00,37.4,33.6,24.97,West,278,24.0,-999.0,86,-99.99,,,-99.99,dwt +perl,2013-06-19 06:59:00,